Location: Haliburton Scout Reserve
(45.0900°N, 78.3200°W)
Time: 18:26:30
(UTC-04:00)

Courier 1B Rocket - Pass Details

Date: 11 February 2023
Orbit: 920 x 1202 km, 28.2° (Epoch: 22 March)

Event Time Altitude Azimuth Distance (km) Brightness Sun altitude
Rises 15:18:08 0° 239° (WSW) 3,769 9.5 19.5°
Reaches altitude 10° 15:21:52 10° 221° (SW) 2,761 9.8 19.0°
Maximum altitude 15:26:00 17° 182° (S) 2,211 7.8 18.5°
Drops below altitude 10° 15:30:01 10° 143° (SE) 2,658 7.4 18.0°
Sets 15:33:31 0° 124° (SE) 3,572 7.8 17.6°
